Flag for Germany Weather past 2 weeks in Konstanz, Baden-Württemberg, Germany

Now
63 °F

Overcast.


Feels Like: 63 °F
Forecast: 54 / 80 °F
Wind: 1 mph from Northeast

Location: Konstanz

Current Time: Aug 1, 2015 at 2:48:45 PM

Latest Report: Aug 1, 2015 at 2:00 PM


Visibility: 22 mi

Pressure: 29.99 "Hg

Humidity: 80%

Dew point: 57 °F

Location of KonstanzLocation

Historic Weather in Konstanz — Graph

°F

Konstanz temperature yesterday

Maximum temperature yesterday: 77 °F (at 4:00 PM)
Minimum temperature yesterday: 52 °F (at 7:00 AM)
Average temperature yesterday: 66 °F

Past Weeks' High & Low Weather Summary

 TemperatureHumidityPressure
High95 °F (Jul 22, 5:00 PM)97% (Jul 30, 7:00 AM)30.14 "Hg (Jul 30, 7:00 AM)
Low51 °F (Jul 30, 5:00 AM)22% (Jul 22, 5:00 PM)29.66 "Hg (Jul 24, 7:00 PM)
Average70 °F63%29.92 "Hg
* Reported Jul 17 1:00 PM — Aug 1 1:00 PM, Konstanz, Weather by CustomWeather, © 2015

Note: Actual official high and low records may vary slightly from our data, if they occured in-between our weather recording intervals... More about our weather records

Advertising

Konstanz weather history for previous 24 hours

 ConditionsComfort  
Time TempWeatherWind HumidityBarometerVisibility
1:00 PM
Sat, Aug 1
62 °FOvercast.1 mph77%30.01 "Hg22 mi
12:00 PM60 °FLight rain. Overcast.2 mph83%30.02 "Hg19 mi
11:00 AM59 °FLight rain. Overcast.2 mph89%30.02 "Hg11 mi
10:00 AM58 °FOvercast.1 mph91%30.02 "Hg4 mi
9:00 AM58 °FLight rain. Overcast.5 mph87%30.01 "Hg11 mi
8:00 AM59 °FLight rain. Overcast.2 mph78%29.96 "Hg11 mi
7:00 AM60 °FLight rain. Overcast.2 mph71%29.92 "Hg16 mi
5:00 AM61 °FOvercast.1 mph63%29.88 "Hg43 mi
4:00 AM61 °FPassing clouds.2 mph65%29.89 "Hg43 mi
3:00 AM61 °FPassing clouds.1 mph66%29.90 "Hg37 mi
2:00 AM64 °FPassing clouds.2 mph60%29.89 "Hg43 mi
1:00 AM65 °FOvercast.1 mph53%29.90 "Hg43 mi
12:00 AM65 °FPassing clouds.1 mph51%29.90 "Hg43 mi
11:00 PM
Fri, Jul 31
68 °FClear.2 mph44%29.88 "Hg43 mi
10:00 PM68 °FClear.2 mph46%29.89 "Hg43 mi
9:00 PM70 °FOvercast.2 mph44%29.88 "Hg37 mi
8:00 PM72 °FOvercast.2 mph38%29.87 "Hg31 mi
7:00 PM74 °FOvercast.2 mph35%29.88 "Hg31 mi
6:00 PM76 °FPartly sunny.5 mph32%29.88 "Hg31 mi
5:00 PM77 °FPartly sunny.2 mph31%29.88 "Hg31 mi
4:00 PM77 °FScattered clouds.3 mph30%29.90 "Hg31 mi
3:00 PM74 °FScattered clouds.5 mph30%29.92 "Hg31 mi
2:00 PM73 °FScattered clouds.3 mph34%29.93 "Hg37 mi
Weather by CustomWeather, © 2015

See weather overviewHow to use our weather pages